Time,TemperatureF,DewpointF,PressureIn,WindDirection,WindDirectionDegrees,WindSpeedMPH,WindSpeedGustMPH,Humidity,HourlyPrecipIn,Conditions,Clouds,dailyrainin,SoftwareType,DateUTC
2013-02-22 00:01:00,34.0,19.0,-100.00,NW,325,7.0,9.0,54,0.00,,,-99.99,,2013-02-22 07:01:00,
2013-02-22 00:11:00,33.0,19.0,-100.00,NNW,335,6.0,9.0,54,0.00,,,-99.99,,2013-02-22 07:11:00,
2013-02-22 00:21:00,33.0,19.0,-100.00,NNW,340,6.0,9.0,54,0.00,,,-99.99,,2013-02-22 07:21:00,
2013-02-22 00:31:00,33.0,19.0,-100.00,NNW,340,7.0,10.0,55,0.00,,,-99.99,,2013-02-22 07:31:00,
2013-02-22 00:42:00,33.0,19.0,-100.00,NNW,330,7.0,9.0,55,0.00,,,-99.99,,2013-02-22 07:42:00,
2013-02-22 00:51:00,33.0,19.0,-100.00,NNW,330,6.0,9.0,56,0.00,,,-99.99,,2013-02-22 07:51:00,
2013-02-22 01:01:00,33.0,19.0,-100.00,North,355,6.0,10.0,56,0.00,,,-99.99,,2013-02-22 08:01:00,
2013-02-22 01:11:00,33.0,19.0,-100.00,NNW,330,6.0,9.0,57,0.00,,,-99.99,,2013-02-22 08:11:00,
2013-02-22 01:21:00,32.0,19.0,-100.00,North,0,6.0,10.0,56,0.00,,,-99.99,,2013-02-22 08:21:00,
2013-02-22 01:31:00,32.0,19.0,-100.00,NNW,345,6.0,10.0,57,0.00,,,-99.99,,2013-02-22 08:31:00,
2013-02-22 01:41:00,32.0,19.0,-100.00,NNW,345,6.0,12.0,57,0.00,,,-99.99,,2013-02-22 08:41:00,
2013-02-22 01:52:00,33.0,19.0,-100.00,NNW,330,7.0,9.0,56,0.00,,,-99.99,,2013-02-22 08:52:00,
2013-02-22 02:03:00,32.0,19.0,-100.00,NNW,340,7.0,9.0,56,0.00,,,-99.99,,2013-02-22 09:03:00,
2013-02-22 02:11:00,32.0,19.0,-100.00,North,350,6.0,9.0,56,0.00,,,-99.99,,2013-02-22 09:11:00,
2013-02-22 02:21:00,32.0,18.0,-100.00,North,0,5.0,9.0,56,0.00,,,-99.99,,2013-02-22 09:21:00,
2013-02-22 02:31:00,31.0,18.0,-100.00,NNW,335,6.0,9.0,56,0.00,,,-99.99,,2013-02-22 09:31:00,
2013-02-22 02:41:00,31.0,18.0,-100.00,North,0,5.0,9.0,56,0.00,,,-99.99,,2013-02-22 09:41:00,
2013-02-22 02:51:00,31.0,18.0,-100.00,North,0,6.0,8.0,56,0.00,,,-99.99,,2013-02-22 09:51:00,
2013-02-22 03:01:00,31.0,18.0,-100.00,North,0,5.0,9.0,57,0.00,,,-99.99,,2013-02-22 10:01:00,
2013-02-22 03:11:00,31.0,18.0,-100.00,North,0,6.0,9.0,57,0.00,,,-99.99,,2013-02-22 10:11:00,
2013-02-22 03:21:00,31.0,18.0,-100.00,North,0,6.0,9.0,57,0.00,,,-99.99,,2013-02-22 10:21:00,
2013-02-22 03:31:00,31.0,18.0,-100.00,NNW,345,6.0,9.0,57,0.00,,,-99.99,,2013-02-22 10:31:00,
2013-02-22 03:42:00,31.0,18.0,-100.00,North,355,6.0,10.0,59,0.00,,,-99.99,,2013-02-22 10:42:00,
2013-02-22 03:51:00,31.0,19.0,-100.00,North,0,7.0,11.0,60,0.00,,,-99.99,,2013-02-22 10:51:00,
2013-02-22 04:01:00,31.0,19.0,-100.00,North,0,7.0,11.0,60,0.00,,,-99.99,,2013-02-22 11:01:00,
2013-02-22 04:11:00,31.0,19.0,-100.00,North,0,6.0,11.0,61,0.00,,,-99.99,,2013-02-22 11:11:00,
2013-02-22 04:21:00,31.0,19.0,-100.00,North,0,7.0,12.0,62,0.00,,,-99.99,,2013-02-22 11:21:00,
2013-02-22 04:32:00,30.0,19.0,-100.00,NNW,340,6.0,11.0,63,0.00,,,-99.99,,2013-02-22 11:32:00,
2013-02-22 04:42:00,30.0,20.0,-100.00,North,355,7.0,12.0,64,0.00,,,-99.99,,2013-02-22 11:42:00,
2013-02-22 04:52:00,30.0,20.0,-100.00,North,0,7.0,10.0,64,0.00,,,-99.99,,2013-02-22 11:52:00,
2013-02-22 05:02:00,30.0,20.0,-100.00,North,355,6.0,10.0,64,0.00,,,-99.99,,2013-02-22 12:02:00,
2013-02-22 05:11:00,30.0,20.0,-100.00,North,0,7.0,9.0,65,0.00,,,-99.99,,2013-02-22 12:11:00,
2013-02-22 05:21:00,30.0,20.0,-100.00,North,0,7.0,12.0,65,0.00,,,-99.99,,2013-02-22 12:21:00,
2013-02-22 05:32:00,30.0,20.0,-100.00,North,355,6.0,11.0,65,0.00,,,-99.99,,2013-02-22 12:32:00,
2013-02-22 05:42:00,30.0,20.0,-100.00,North,0,6.0,11.0,65,0.00,,,-99.99,,2013-02-22 12:42:00,
2013-02-22 05:52:00,30.0,20.0,-100.00,North,0,6.0,10.0,65,0.00,,,-99.99,,2013-02-22 12:52:00,
2013-02-22 06:01:00,30.0,20.0,-100.00,North,10,4.0,9.0,66,0.00,,,-99.99,,2013-02-22 13:01:00,
2013-02-22 06:11:00,30.0,20.0,-100.00,NNW,340,4.0,9.0,66,0.00,,,-99.99,,2013-02-22 13:11:00,
2013-02-22 06:22:00,30.0,20.0,-100.00,NNW,345,4.0,10.0,66,0.00,,,-99.99,,2013-02-22 13:22:00,
2013-02-22 06:31:00,30.0,20.0,-100.00,North,0,6.0,9.0,67,0.00,,,-99.99,,2013-02-22 13:31:00,
2013-02-22 06:41:00,30.0,20.0,-100.00,North,0,4.0,9.0,67,0.00,,,-99.99,,2013-02-22 13:41:00,
2013-02-22 06:51:00,30.0,20.0,-100.00,North,350,6.0,9.0,67,0.00,,,-99.99,,2013-02-22 13:51:00,
2013-02-22 07:01:00,30.0,20.0,-100.00,North,355,4.0,7.0,68,0.00,,,-99.99,,2013-02-22 14:01:00,
2013-02-22 07:11:00,30.0,21.0,-100.00,North,0,5.0,9.0,68,0.00,,,-99.99,,2013-02-22 14:11:00,
2013-02-22 07:21:00,30.0,21.0,-100.00,North,0,4.0,7.0,68,0.00,,,-99.99,,2013-02-22 14:21:00,
2013-02-22 07:32:00,30.0,21.0,-100.00,North,0,4.0,9.0,68,0.00,,,-99.99,,2013-02-22 14:32:00,
2013-02-22 07:41:00,30.0,21.0,-100.00,North,0,3.0,6.0,68,0.00,,,-99.99,,2013-02-22 14:41:00,
2013-02-22 07:52:00,30.0,21.0,-100.00,North,355,2.0,4.0,68,0.00,,,-99.99,,2013-02-22 14:52:00,
2013-02-22 08:01:00,30.0,21.0,-100.00,North,355,2.0,4.0,67,0.00,,,-99.99,,2013-02-22 15:01:00,
2013-02-22 08:11:00,31.0,21.0,-100.00,NNE,30,1.0,4.0,67,0.00,,,-99.99,,2013-02-22 15:11:00,
2013-02-22 08:21:00,31.0,21.0,-100.00,NNE,25,2.0,5.0,67,0.00,,,-99.99,,2013-02-22 15:21:00,
2013-02-22 08:32:00,31.0,20.0,-100.00,NNE,15,3.0,9.0,65,0.00,,,-99.99,,2013-02-22 15:32:00,
2013-02-22 08:41:00,31.0,20.0,-100.00,East,90,5.0,9.0,63,0.00,,,-99.99,,2013-02-22 15:41:00,
2013-02-22 08:52:00,31.0,20.0,-100.00,NNE,30,4.0,9.0,63,0.00,,,-99.99,,2013-02-22 15:52:00,
2013-02-22 09:01:00,31.0,20.0,-100.00,NNW,330,7.0,11.0,63,0.00,,,-99.99,,2013-02-22 16:01:00,
2013-02-22 09:11:00,30.0,20.0,-100.00,North,0,5.0,9.0,64,0.00,,,-99.99,,2013-02-22 16:11:00,
2013-02-22 09:21:00,30.0,20.0,-100.00,North,5,6.0,9.0,64,0.00,,,-99.99,,2013-02-22 16:21:00,
2013-02-22 09:31:00,31.0,21.0,-100.00,North,10,4.0,9.0,64,0.00,,,-99.99,,2013-02-22 16:31:00,
2013-02-22 09:41:00,32.0,21.0,-100.00,North,10,4.0,9.0,64,0.00,,,-99.99,,2013-02-22 16:41:00,
2013-02-22 09:52:00,32.0,21.0,-100.00,North,0,4.0,9.0,64,0.00,,,-99.99,,2013-02-22 16:52:00,
2013-02-22 10:01:00,31.0,20.0,-100.00,NW,325,7.0,11.0,62,0.00,,,-99.99,,2013-02-22 17:01:00,
2013-02-22 10:11:00,32.0,20.0,-100.00,NNW,345,6.0,12.0,62,0.00,,,-99.99,,2013-02-22 17:11:00,
2013-02-22 10:21:00,32.0,20.0,-100.00,North,0,6.0,12.0,62,0.00,,,-99.99,,2013-02-22 17:21:00,
2013-02-22 10:31:00,31.0,20.0,-100.00,North,0,7.0,12.0,63,0.00,,,-99.99,,2013-02-22 17:31:00,
2013-02-22 10:41:00,32.0,21.0,-100.00,North,355,6.0,9.0,64,0.00,,,-99.99,,2013-02-22 17:41:00,
2013-02-22 10:52:00,32.0,22.0,-100.00,North,0,4.0,10.0,65,0.00,,,-99.99,,2013-02-22 17:52:00,
2013-02-22 11:01:00,32.0,22.0,-100.00,NNE,15,6.0,10.0,65,0.00,,,-99.99,,2013-02-22 18:01:00,
2013-02-22 11:12:00,32.0,22.0,-100.00,North,0,6.0,11.0,66,0.00,,,-99.99,,2013-02-22 18:12:00,
2013-02-22 11:22:00,33.0,22.0,-100.00,North,0,4.0,9.0,65,0.00,,,-99.99,,2013-02-22 18:22:00,
2013-02-22 11:32:00,33.0,22.0,-100.00,NW,320,7.0,11.0,63,0.00,,,-99.99,,2013-02-22 18:32:00,
2013-02-22 11:42:00,34.0,22.0,-100.00,North,0,4.0,11.0,61,0.00,,,-99.99,,2013-02-22 18:42:00,
2013-02-22 11:51:00,34.0,21.0,-100.00,North,355,6.0,9.0,58,0.00,,,-99.99,,2013-02-22 18:51:00,
2013-02-22 12:01:00,35.0,21.0,-100.00,NNW,340,4.0,9.0,57,0.00,,,-99.99,,2013-02-22 19:01:00,
2013-02-22 12:11:00,34.0,20.0,-100.00,North,0,4.0,7.0,56,0.00,,,-99.99,,2013-02-22 19:11:00,
2013-02-22 12:21:00,35.0,20.0,-100.00,North,10,2.0,9.0,55,0.00,,,-99.99,,2013-02-22 19:21:00,
2013-02-22 12:31:00,35.0,20.0,-100.00,NE,40,1.0,6.0,54,0.00,,,-99.99,,2013-02-22 19:31:00,
2013-02-22 12:41:00,35.0,21.0,-100.00,East,90,2.0,7.0,54,0.00,,,-99.99,,2013-02-22 19:41:00,
2013-02-22 12:52:00,36.0,21.0,-100.00,South,170,2.0,6.0,54,0.00,,,-99.99,,2013-02-22 19:52:00,
2013-02-22 13:01:00,36.0,21.0,-100.00,SE,135,1.0,6.0,53,0.00,,,-99.99,,2013-02-22 20:01:00,
2013-02-22 13:11:00,36.0,20.0,-100.00,ENE,65,2.0,6.0,52,0.00,,,-99.99,,2013-02-22 20:11:00,
2013-02-22 13:21:00,38.0,21.0,-100.00,SE,125,1.0,4.0,51,0.00,,,-99.99,,2013-02-22 20:21:00,
2013-02-22 13:31:00,38.0,20.0,-100.00,NNE,20,2.0,6.0,49,0.00,,,-99.99,,2013-02-22 20:31:00,
2013-02-22 13:41:00,40.0,21.0,-100.00,East,95,2.0,7.0,47,0.00,,,-99.99,,2013-02-22 20:41:00,
2013-02-22 13:52:00,39.0,19.0,-100.00,North,0,5.0,8.0,44,0.00,,,-99.99,,2013-02-22 20:52:00,
2013-02-22 14:01:00,39.0,18.0,-100.00,NNW,345,4.0,7.0,42,0.00,,,-99.99,,2013-02-22 21:01:00,
2013-02-22 14:11:00,40.0,18.0,-100.00,South,190,3.0,8.0,41,0.00,,,-99.99,,2013-02-22 21:11:00,
2013-02-22 14:21:00,40.0,18.0,-100.00,West,260,3.0,6.0,40,0.00,,,-99.99,,2013-02-22 21:21:00,
2013-02-22 14:31:00,40.0,17.0,-100.00,NW,315,6.0,7.0,38,0.00,,,-99.99,,2013-02-22 21:31:00,
2013-02-22 14:41:00,39.0,18.0,-100.00,South,190,9.0,12.0,40,0.00,,,-99.99,,2013-02-22 21:41:00,
2013-02-22 14:51:00,38.0,20.0,-100.00,South,190,6.0,12.0,46,0.00,,,-99.99,,2013-02-22 21:51:00,
2013-02-22 15:01:00,37.0,20.0,-100.00,SSW,195,9.0,14.0,50,0.00,,,-99.99,,2013-02-22 22:01:00,
2013-02-22 15:11:00,37.0,22.0,-100.00,South,185,10.0,15.0,54,0.00,,,-99.99,,2013-02-22 22:11:00,
2013-02-22 15:21:00,36.0,22.0,-100.00,South,185,10.0,15.0,56,0.00,,,-99.99,,2013-02-22 22:21:00,
2013-02-22 15:31:00,36.0,23.0,-100.00,SSW,195,10.0,16.0,58,0.00,,,-99.99,,2013-02-22 22:31:00,
2013-02-22 15:41:00,36.0,23.0,-100.00,SSW,200,10.0,16.0,58,0.00,,,-99.99,,2013-02-22 22:41:00,
2013-02-22 15:51:00,36.0,23.0,-100.00,South,185,9.0,13.0,58,0.00,,,-99.99,,2013-02-22 22:51:00,
2013-02-22 16:01:00,37.0,23.0,-100.00,SSE,150,7.0,12.0,58,0.00,,,-99.99,,2013-02-22 23:01:00,
2013-02-22 16:11:00,36.0,22.0,-100.00,SE,145,7.0,11.0,56,0.00,,,-99.99,,2013-02-22 23:11:00,
2013-02-22 16:21:00,35.0,21.0,-100.00,South,175,6.0,11.0,57,0.00,,,-99.99,,2013-02-22 23:21:00,
2013-02-22 16:31:00,35.0,21.0,-100.00,South,180,4.0,11.0,56,0.00,,,-99.99,,2013-02-22 23:31:00,
2013-02-22 16:41:00,35.0,21.0,-100.00,SW,225,6.0,13.0,56,0.00,,,-99.99,,2013-02-22 23:41:00,
2013-02-22 16:52:00,35.0,21.0,-100.00,South,175,4.0,9.0,56,0.00,,,-99.99,,2013-02-22 23:52:00,
2013-02-22 17:01:00,35.0,21.0,-100.00,South,180,6.0,9.0,56,0.00,,,-99.99,,2013-02-23 00:01:00,
2013-02-22 17:11:00,35.0,21.0,-100.00,South,170,5.0,8.0,56,0.00,,,-99.99,,2013-02-23 00:11:00,
2013-02-22 17:21:00,35.0,21.0,-100.00,SSE,150,6.0,8.0,56,0.00,,,-99.99,,2013-02-23 00:21:00,
2013-02-22 17:31:00,35.0,21.0,-100.00,SSE,160,4.0,7.0,55,0.00,,,-99.99,,2013-02-23 00:31:00,
2013-02-22 17:41:00,35.0,21.0,-100.00,SE,145,4.0,6.0,55,0.00,,,-99.99,,2013-02-23 00:41:00,
2013-02-22 17:51:00,35.0,20.0,-100.00,South,170,2.0,6.0,54,0.00,,,-99.99,,2013-02-23 00:51:00,
2013-02-22 18:01:00,35.0,20.0,-100.00,WNW,295,2.0,6.0,54,0.00,,,-99.99,,2013-02-23 01:01:00,
2013-02-22 18:11:00,35.0,19.0,-100.00,North,0,4.0,6.0,52,0.00,,,-99.99,,2013-02-23 01:11:00,
2013-02-22 18:21:00,34.0,18.0,-100.00,North,355,4.0,6.0,52,0.00,,,-99.99,,2013-02-23 01:21:00,
2013-02-22 18:31:00,33.0,17.0,-100.00,NE,40,3.0,6.0,52,0.00,,,-99.99,,2013-02-23 01:31:00,
2013-02-22 18:41:00,33.0,18.0,-100.00,WNW,285,1.0,6.0,53,0.00,,,-99.99,,2013-02-23 01:41:00,
2013-02-22 18:51:00,33.0,18.0,-100.00,NE,45,0.0,4.0,55,0.00,,,-99.99,,2013-02-23 01:51:00,
2013-02-22 19:01:00,33.0,19.0,-100.00,NW,305,2.0,4.0,55,0.00,,,-99.99,,2013-02-23 02:01:00,
2013-02-22 19:11:00,33.0,19.0,-100.00,NW,305,3.0,4.0,56,0.00,,,-99.99,,2013-02-23 02:11:00,
2013-02-22 19:21:00,33.0,19.0,-100.00,NW,315,3.0,6.0,55,0.00,,,-99.99,,2013-02-23 02:21:00,
2013-02-22 19:31:00,32.0,18.0,-100.00,North,5,2.0,5.0,55,0.00,,,-99.99,,2013-02-23 02:31:00,
2013-02-22 19:41:00,32.0,18.0,-100.00,North,350,3.0,6.0,55,0.00,,,-99.99,,2013-02-23 02:41:00,
2013-02-22 19:52:00,32.0,18.0,-100.00,NW,315,4.0,5.0,55,0.00,,,-99.99,,2013-02-23 02:52:00,
2013-02-22 20:01:00,32.0,18.0,-100.00,NW,310,5.0,6.0,56,0.00,,,-99.99,,2013-02-23 03:01:00,
2013-02-22 20:11:00,31.0,17.0,-100.00,NNW,340,2.0,6.0,55,0.00,,,-99.99,,2013-02-23 03:11:00,
2013-02-22 20:21:00,31.0,17.0,-100.00,NW,310,6.0,7.0,56,0.00,,,-99.99,,2013-02-23 03:21:00,
2013-02-22 20:31:00,29.0,16.0,-100.00,NNW,345,1.0,6.0,56,0.00,,,-99.99,,2013-02-23 03:31:00,
2013-02-22 20:41:00,30.0,16.0,-100.00,NW,325,4.0,6.0,56,0.00,,,-99.99,,2013-02-23 03:41:00,
2013-02-22 20:51:00,29.0,16.0,-100.00,NNW,330,2.0,6.0,56,0.00,,,-99.99,,2013-02-23 03:51:00,
2013-02-22 21:01:00,30.0,16.0,-100.00,NNW,335,7.0,9.0,55,0.00,,,-99.99,,2013-02-23 04:01:00,
2013-02-22 21:11:00,30.0,17.0,-100.00,NW,320,9.0,11.0,56,0.00,,,-99.99,,2013-02-23 04:11:00,
2013-02-22 21:21:00,30.0,16.0,-100.00,NNW,330,8.0,11.0,56,0.00,,,-99.99,,2013-02-23 04:21:00,
2013-02-22 21:31:00,29.0,16.0,-100.00,NNW,335,7.0,11.0,57,0.00,,,-99.99,,2013-02-23 04:31:00,
2013-02-22 21:41:00,29.0,17.0,-100.00,NNW,330,8.0,9.0,60,0.00,,,-99.99,,2013-02-23 04:41:00,
2013-02-22 21:51:00,28.0,17.0,-100.00,NNW,330,7.0,9.0,62,0.00,,,-99.99,,2013-02-23 04:51:00,
2013-02-22 22:02:00,28.0,18.0,-100.00,NNW,340,4.0,6.0,64,0.00,,,-99.99,,2013-02-23 05:02:00,
2013-02-22 22:11:00,28.0,18.0,-100.00,NNW,335,4.0,6.0,64,0.00,,,-99.99,,2013-02-23 05:11:00,
2013-02-22 22:22:00,28.0,18.0,-100.00,NNW,345,5.0,6.0,65,0.00,,,-99.99,,2013-02-23 05:22:00,
2013-02-22 22:32:00,27.0,17.0,-100.00,NW,320,5.0,6.0,66,0.00,,,-99.99,,2013-02-23 05:32:00,
2013-02-22 22:41:00,27.0,17.0,-100.00,NNW,335,8.0,9.0,66,0.00,,,-99.99,,2013-02-23 05:41:00,
2013-02-22 22:52:00,27.0,17.0,-100.00,NNW,330,7.0,9.0,66,0.00,,,-99.99,,2013-02-23 05:52:00,
2013-02-22 23:01:00,27.0,17.0,-100.00,NNW,345,5.0,9.0,67,0.00,,,-99.99,,2013-02-23 06:01:00,
2013-02-22 23:11:00,26.0,17.0,-100.00,North,350,2.0,4.0,67,0.00,,,-99.99,,2013-02-23 06:11:00,
2013-02-22 23:22:00,26.0,17.0,-100.00,NNW,330,6.0,6.0,67,0.00,,,-99.99,,2013-02-23 06:22:00,
2013-02-22 23:31:00,26.0,17.0,-100.00,NNW,340,6.0,7.0,68,0.00,,,-99.99,,2013-02-23 06:31:00,
2013-02-22 23:41:00,26.0,17.0,-100.00,NNW,335,6.0,7.0,68,0.00,,,-99.99,,2013-02-23 06:41:00,
2013-02-22 23:51:00,25.0,16.0,-100.00,North,350,3.0,7.0,68,0.00,,,-99.99,,2013-02-23 06:51:00,